Regional Weather Roundup
Issued by NWS Newport/Morehead, NC

Current Version | Previous Version | Text Only | Print | Product List | Glossary On
Versions: 1 2 3 4 5 6 7 8 9 10 11 12 13 14 15 16 17 18 19 20 21 22 23 24 25 26 27 28 29 30 31 32 33 34 35 36 37 38 39 40 41 42 43 44 45 46 47 48 49 50
000 ASUS42 KMHX 240322 RWRMHX WEATHER ROUNDUP FOR EASTERN NORTH CAROLINA NATIONAL WEATHER SERVICE NEWPORT/MOREHEAD CITY NC 1100 PM EDT TUE SEP 23 2014 NOTE: "FAIR" INDICATES FEW OR NO CLOUDS BELOW 12,000 FEET WITH NO SIGNIFICANT WEATHER AND/OR OBSTRUCTIONS TO VISIBILITY NCZ015>017-031-032-045>047-102-103-240400- NORTH COAST CITY SKY/WX TMP DP RH WIND PRES REMARKS EDENTON CLOUDY 60 55 82 N8 30.28S ELIZABETH CITY CLOUDY 63 57 81 N12 30.28S KITTY HAWK DRIZZLE 69 60 74 NE12G21 30.24S MANTEO CLOUDY 68 61 79 NE16G25 30.24F $$ NCZ045>047-081-094-103-104-240400- CENTRAL COAST CITY SKY/WX TMP DP RH WIND PRES REMARKS FRISCO CLOUDY 68 66 93 NE15G24 30.18F SWANQUARTER N/A 64 N/A N/A VRB10 30.18S $$ NCZ095-097-098-100-101-240400- SOUTHERN COAST CITY SKY/WX TMP DP RH WIND PRES REMARKS BEAUFORT LGT RAIN 65 61 87 N18G28 30.20S CEDAR ISLAND N/A 68 N/A N/A N28G35 30.24S JACKSONVILLE CLOUDY 60 56 86 N18G24 30.22S NEWPORT NOT AVBL PINEY ISLAND LGT RAIN 67 62 84 N23G29 30.20S WILMINGTON CLOUDY 60 57 89 N17G23 30.20F $$ NCZ011>013-027>030-043-044-078>080-089-090>093-098-240400- COASTAL PLAIN CITY SKY/WX TMP DP RH WIND PRES REMARKS AHOSKIE CLOUDY 58 51 77 N7 30.32R CLINTON CLOUDY 58 56 92 NE7 30.26S ELIZABETHTOWN CLOUDY 58 57 97 N3 30.24F GOLDSBORO CLOUDY 59 58 96 NE3 30.26S GREENVILLE CLOUDY 59 54 82 N8 30.29S HAVELOCK CLOUDY 63 58 83 N16 30.23S KENANSVILLE CLOUDY 59 54 82 N10G16 30.26S KINSTON CLOUDY 59 55 85 N9G16 30.27F NEW BERN CLOUDY 62 56 80 N9 30.26R RICHLANDS CLOUDY 59 52 77 N12G18 30.24S ROANOKE RAPIDS NOT AVBL ROCKY MOUNT CLOUDY 57 54 89 NE7 30.30S WASHINGTON CLOUDY 58 54 89 N10 30.27F WHITEVILLE DRIZZLE 58 56 94 NE6 30.22S $$ AMZ130-135-150-152-154-156-158-170-250-252-270-ANZ085-086-088-633-658-670-240400- MARINE OBSERVATIONS STATION/POSITION TIME TEMP WIND PRES WAVE SWELL AIR SEA DIR/SP/G HT/PER HT/PER (UTC) (F) (DEG/KT/KT) (MB) (FT/S) (FT/S) CHESAPEAKE LIGHT 0300 67 60/ 21/ 22 1026.3 BUOY 44014 0300 69 75 50/ 19/ 23 1024.4 5/ 6 2/ 9 DUCK 0300 69 73 30/ 23/ 26 1023.9 2E DUCK 0300 N/A 5/ 6 OREGON INLET 0300 70 72 30/ 20/ 28 1023.1 BUOY 44095 0300 74 N/A 7/ 6 20E OREGON INLET NOT AVBL HATTERAS CG NOT AVBL DIAMOND BUOY 0300 70 80/ 14/ 23 1021.9 9/ 8 7/ 8 CAPE LOOKOUT 0300 66 10/ 22/ 28 1021.7 BEAUFORT LAB 0300 65 74 10/ 17/ 25 1021.9 30 SE NEW RIVER 0300 70 81 20/ 29/ 35 1019.7 8/ 7 5 SE WRIGHTSVILL 0300 60 78 20/ 25/ 31 N/A BUOY 41002 0231 79 81 110/ 12/ 14 1019.5 4/ 7 3/ 7 BUOY 41004 0300 72 81 30/ 29/ 35 1018.1 11/ 8 2/14 $$

USA.gov is the U.S. government's official web portal to all federal, state and local government web resources and services.